7 * 24
多渠道服务支持
IRIDIUM 177 是美国铱星卫星通信公司(Iridium)运营的一颗低轨道通信卫星,属于第二代铱星星座的一部分。该卫星于2001年发射,运行在约780公里高的极地轨道上,为全球提供移动语音和数据通信服务。IRIDIUM 177 采用先进的数字信号处理技术,支持抗干扰和加密通信,广泛应用于军事、航空和海上领域。其高可靠性和全球覆盖能力使其成为关键任务通信的重要保障。
美国
(US)
| 数据来源 | 国际轨道数据 |
| 星历时间: | 2025-12-15T00:51:44+0800 1天前 查看轨道信息 |
| 半长轴: | 7006.792km |
| 偏心率: | 0.00023 |
| 轨道倾角: | 86.197° |
| 近地点辐角 | 86.020° |
| 升交点赤经 | 56.398° |
| 平近点角 | 274.129° |
| 近地点: | 627.045km |
| 远地点: | 630.269km |
| 周期: | 97.283分钟 |
| 每日圈数: | 14.802123 |